GNOMES-1 (46266 NORAD) Tracking and Keplerian Element Data

This shows tracking and keplerian element data for the satellite.

Feedback or suggestion? Click here.




ElementValue
Catalog46266
NameGNOMES-1
Epoch Orbit1379
Epoch Day336.75313395
Epoch Year2020
RAAN160.0491
Inclination97.8824
Eccentricity0.0004969
Argument of Perigee186.7385
Mean Anonmoly173.3765
Mean Motion14.8793266
Decay Rate5.29E-06
L11 46266U 20059B 20336.75313395 .00000529 00000-0 63724-4 0 9992
L22 46266 97.8824 160.0491 0004969 186.7385 173.3765 14.87932660 13799

Live tracking and technical data element details for GNOMES-1 (NORAD 46266). GNOMES-1 can be tracked NOW for your location showing map with azimuth and elevation plus other details from your city location.

Track the satellite on the map from your city or location and see movement details for azimuth, elevation, latitude, longitude, range, height, and movement on the map or in text.







IsCatalogInMostPopularTable: catalog: 46266, numindb: 21
Update: records affected: 1



GetName: 46266 GNOMES-1

Hit Count: updated at: Thu, 03 Dec 2020 08:09:56 GMT